Location: ??????
(55.6130°N, 37.7882°E)
Time: 04:02:08
(UTC+00:00)

ACS3 Solar Sail - Visible Passes

Search period start: 21 June 2024 00:00
Search period end: 01 July 2024 00:00
Orbit: 992 x 1024 km, 97.4° (Epoch: 20 June)

Date Brightness Start Highest point End Pass type
(mag) Time Alt. Az. Time Alt. Az. Time Alt. Az.
21 Jun 7.0 20:45:10 10° WSW 20:49:07 17° W 20:53:06 10° NW visible
22 Jun 5.7 19:32:33 10° SSW 19:38:29 45° W 19:44:27 10° NNW visible
23 Jun 6.4 20:08:03 10° SW 20:13:18 28° W 20:18:34 10° NNW visible
24 Jun 7.0 20:44:27 10° WSW 20:48:18 17° W 20:52:11 10° NW visible
25 Jun 5.8 19:31:45 10° SSW 19:37:39 44° W 19:43:35 10° NNW visible
26 Jun 6.5 20:07:17 10° SW 20:12:28 27° W 20:17:40 10° NNW visible
27 Jun 7.0 20:43:44 10° WSW 20:47:29 16° W 20:51:15 10° NW visible
28 Jun 5.8 19:30:56 10° SSW 19:36:48 43° W 19:42:43 10° NNW visible
29 Jun 6.5 20:06:30 10° SW 20:11:38 26° W 20:16:47 10° NNW visible
30 Jun 7.0 20:43:01 10° WSW 20:46:39 16° W 20:50:20 10° NW visible
